Temperature
15 15 16 17 13 10 13 14 14 14 14 15 15 15 14 14 15 15 15 15 15 15 15 14 14 15 15 15 15 15 15 15 15 15 15 15 15 15 15 15 15 15 15 15 15 15 15 15 15
15 16 16 16 11 12 13 13 13 14 15 15 15 15 14 14 14 14 15 15 14 15 14 14 14 14 14 15 15 15 15 15 15 15 15 15 15 15 14 14 14 14 14 14 15 15 14 15 15
15 16 16 10 11 12 14 14 13 14 15 15 14 14 14 14 14 14 14 14 14 14 14 14 14 14 14 14 15 15 15 14 15 15 15 14 14 14 14 14 14 14 14 14 14 14 14 14 14
15 16 14 10 12 12 13 13 13 13 15 15 14 13 13 13 13 14 14 14 14 14 14 14 14 14 14 14 14 14 14 14 14 14 14 14 14 14 14 14 14 14 14 14 14 14 14 14 14
15 15 11 11 12 12 11 12 13 13 13 13 13 12 13 13 13 14 14 14 14 14 13 13 13 13 14 14 14 14 14 14 14 14 14 14 14 14 14 14 14 14 14 14 14 14 14 14 14
15 11 10 11 12 12 11 12 13 12 12 13 12 12 12 13 13 13 13 13 13 13 13 13 13 13 13 13 13 14 14 14 14 13 13 14 14 14 14 14 14 13 13 13 14 14 14 14 14
13 9 10 11 11 12 11 12 12 11 11 12 12 11 12 13 13 13 13 13 13 13 13 13 13 13 13 13 13 13 13 13 13 13 13 13 13 13 13 13 13 13 13 13 13 13 13 13 13
14 9 10 10 11 11 11 12 12 11 11 12 12 10 10 11 12 12 12 12 12 12 12 12 12 12 12 12 13 13 13 13 13 13 13 13 13 13 13 13 13 13 13 13 13 13 13 13 13
13 9 10 10 10 11 11 11 11 11 11 10 10 10 10 11 11 11 12 12 12 12 12 12 12 12 12 12 12 12 12 12 12 12 12 12 12 13 13 13 13 13 13 13 13 13 13 13 13
11 8 10 10 10 10 10 10 10 10 9 9 10 10 10 11 11 11 11 11 11 11 11 11 12 12 12 12 12 12 12 12 12 12 12 12 12 12 12 12 12 12 13 13 13 13 13 13 13
10 9 9 10 10 10 10 9 9 9 8 8 8 9 10 10 10 10 10 10 10 11 11 11 11 11 11 11 11 11 11 11 11 12 12 12 12 12 12 12 12 12 12 12 12 12 12 12 12
9 9 9 9 10 10 9 9 8 8 8 8 8 8 9 9 9 9 9 10 10 10 10 11 11 11 11 11 11 11 11 11 11 11 11 11 11 11 11 12 12 12 12 12 12 12 12 12 12
8 8 9 9 9 9 8 7 7 7 7 7 8 8 8 8 8 8 8 9 9 10 10 10 10 11 11 11 11 11 11 11 11 11 11 11 11 11 11 11 11 11 11 11 11 12 12 12 12
8 8 8 8 8 8 7 7 6 6 7 7 7 6 6 7 7 7 8 8 9 9 9 9 10 10 10 10 10 10 10 11 11 11 10 11 11 11 11 11 11 11 11 11 11 11 11 11 11
8 7 7 7 8 8 7 6 5 5 6 6 5 5 5 5 6 6 7 7 8 8 8 9 9 9 10 10 10 10 10 10 10 10 10 10 10 10 10 10 10 10 10 10 11 11 11 11 11
7 7 6 7 6 7 7 6 5 5 5 4 4 4 4 5 5 5 6 6 7 7 8 8 8 9 9 9 9 10 10 10 10 10 10 10 10 10 10 10 10 10 10 10 10 10 10 10 10
5 5 6 6 6 6 5 5 4 4 4 3 3 3 3 4 4 4 5 5 6 6 7 7 8 8 8 9 9 9 9 9 9 9 9 9 9 9 9 9 9 9 9 9 9 9 10 10 10
5 5 5 5 5 5 4 3 3 3 2 2 2 2 2 2 3 3 4 5 5 6 6 6 7 7 8 8 8 8 9 9 9 9 9 9 9 9 9 9 9 9 9 9 9 9 9 9 9
5 5 5 5 5 4 3 3 2 2 1 1 1 1 1 1 2 3 3 4 4 5 5 6 6 7 7 7 7 8 8 8 8 8 8 8 8 8 8 8 8 8 8 8 8 8 8 9 9
5 5 4 4 4 4 2 2 2 1 1 0 -0 -0 -0 1 2 2 2 3 4 4 4 5 5 6 6 6 6 7 7 7 7 8 8 7 8 8 8 8 8 8 8 8 8 8 8 8 8
5 4 4 4 3 3 3 2 1 1 0 -0 -0 -1 -1 -0 0 1 1 2 2 3 3 4 4 5 5 5 5 6 6 7 7 7 7 7 7 7 7 7 7 7 7 7 7 7 7 7 8
4 4 4 4 3 2 2 2 1 0 -0 -0 -1 -1 -1 -1 -1 -0 0 1 1 2 2 3 3 4 4 5 5 5 5 5 6 6 6 6 6 6 6 6 7 7 7 7 7 7 7 7 7
4 4 3 3 2 1 1 1 1 -0 -0 -1 -1 -1 -1 -1 -1 -1 -1 -0 0 1 2 2 2 3 3 4 4 4 4 4 5 5 5 6 6 6 6 6 6 6 6 6 6 6 6 7 7
3 2 2 1 1 2 1 0 1 -1 -1 -1 -1 -2 -2 -2 -1 -1 -1 -1 -0 0 1 1 2 2 3 3 3 3 3 3 4 4 5 5 5 5 5 5 5 6 6 6 6 6 6 6 6
2 2 1 1 1 1 1 0 -0 -1 -1 -1 -2 -2 -2 -2 -2 -2 -1 -1 -1 -0 0 1 1 2 2 2 3 3 3 3 3 3 3 4 4 5 5 5 5 5 5 5 5 5 5 6 6
2 2 2 2 1 0 0 -0 -1 -1 -1 -2 -2 -2 -2 -2 -2 -2 -2 -2 -2 -1 -1 -0 0 1 1 1 2 2 2 2 2 2 3 3 3 4 4 4 4 4 4 5 5 5 5 5 5
2 1 1 -0 -1 -1 -1 -1 -2 -2 -2 -2 -3 -3 -3 -3 -3 -3 -3 -2 -2 -2 -1 -1 -1 -0 0 1 1 1 1 1 2 2 2 2 3 3 3 4 4 4 4 4 4 4 4 5 5
1 -0 -1 -0 -0 -0 -1 -1 -1 -2 -3 -3 -4 -4 -3 -3 -3 -3 -3 -3 -3 -2 -2 -2 -1 -1 -1 -0 -0 0 1 1 1 1 2 2 2 2 3 3 3 3 3 3 3 4 4 4 4
0 0 -1 -2 -1 -1 -1 -1 -2 -3 -3 -4 -4 -4 -4 -4 -4 -4 -3 -3 -3 -3 -3 -2 -2 -2 -1 -1 -1 -0 -0 0 0 1 1 1 2 2 2 2 2 2 3 3 3 3 3 3 4
0 -1 -1 -1 -2 -3 -3 -2 -2 -4 -4 -4 -4 -4 -4 -4 -4 -4 -4 -4 -3 -3 -3 -3 -3 -2 -2 -2 -2 -1 -1 -0 -0 0 1 1 1 1 1 2 2 2 2 2 2 2 3 3 3
Wind_Speed
6 4 3 4 6 5 1 3 2 1 0 0 1 3 5 4 3 2 1 2 2 3 5 7 9 9 9 9 9 9 9 10 10 10 9 9 8 8 8 7 8 8 9 9 9 9 10 10 11
2 3 5 5 5 2 3 3 2 2 1 1 3 3 4 2 1 2 1 2 2 4 5 6 9 9 9 9 8 8 8 9 9 9 9 8 8 8 8 7 7 8 9 9 9 9 9 10 10
2 5 5 5 4 5 3 2 2 2 2 2 3 3 2 1 2 0 2 1 3 4 5 6 9 9 9 9 8 8 7 8 8 8 7 7 7 7 8 7 7 7 8 8 8 9 9 9 9
4 5 5 5 2 3 2 1 1 1 3 4 3 3 2 3 2 2 1 2 4 4 4 5 8 8 8 8 8 8 7 7 7 7 7 7 6 6 7 7 7 7 8 8 8 8 8 9 9
4 5 5 2 2 2 2 2 1 1 2 3 2 2 1 5 6 5 3 3 4 4 4 4 7 7 7 8 7 7 7 7 6 6 6 6 6 6 6 7 7 7 7 7 7 7 8 8 8
5 5 4 2 3 2 2 3 1 2 2 3 3 2 0 5 7 5 4 3 4 5 5 5 5 6 6 6 7 7 6 6 6 6 6 6 6 6 6 6 6 6 6 7 7 7 7 8 8
5 4 4 4 2 1 3 2 2 2 2 2 1 2 2 5 6 4 4 4 5 6 6 6 6 6 5 5 5 6 6 5 5 6 6 6 6 6 5 5 5 5 6 6 7 7 7 7 8
5 5 3 2 2 1 3 2 2 2 1 2 2 3 2 4 4 4 5 6 5 5 5 6 6 6 5 4 4 4 5 6 5 5 5 6 6 6 5 5 5 5 5 6 6 6 7 7 7
4 4 3 3 3 1 2 2 3 2 3 3 3 2 3 3 4 6 6 6 5 4 4 5 5 6 5 4 3 3 4 5 5 4 4 5 5 5 5 5 5 5 5 5 5 5 6 6 6
4 3 4 1 2 1 1 2 2 3 4 4 4 6 6 5 5 4 4 3 3 4 3 3 4 5 5 4 4 4 4 4 4 4 4 4 4 4 4 4 4 5 5 5 5 5 5 5 5
3 3 1 1 1 1 1 2 3 3 3 3 4 5 5 5 4 3 2 2 2 3 4 3 3 4 4 4 4 4 4 4 4 4 4 4 4 4 4 4 3 4 4 4 4 4 4 4 4
3 1 1 1 2 2 1 1 3 3 1 3 2 3 4 5 4 4 4 4 4 4 4 4 3 3 3 3 3 3 3 4 3 3 4 3 3 3 3 3 3 3 3 3 4 4 4 4 4
2 1 2 3 4 3 4 3 2 3 3 4 6 8 6 6 5 5 5 5 6 5 5 4 3 2 2 3 3 3 3 3 2 2 2 3 2 1 2 2 2 2 2 3 3 3 3 3 3
1 2 2 3 3 2 3 2 2 4 4 6 8 7 6 7 7 8 8 8 7 6 6 6 3 3 2 2 2 2 2 2 2 2 2 2 2 1 1 1 1 1 1 2 3 3 2 2 2
2 3 4 4 2 1 2 4 2 4 4 6 7 7 7 7 7 7 7 7 7 7 6 6 5 4 3 2 2 2 2 2 2 1 1 1 1 1 1 1 0 0 1 2 3 3 3 2 2
4 4 3 4 4 3 2 1 3 5 5 6 6 6 6 7 7 7 8 7 7 7 7 7 6 5 4 3 2 2 2 2 2 1 1 1 1 1 1 0 0 1 2 2 2 1 1 1 1
5 2 2 4 4 3 2 2 3 5 5 5 6 6 6 8 9 9 9 8 8 7 7 7 7 6 5 4 3 2 2 2 2 2 2 1 0 1 1 1 1 1 2 1 2 1 1 1 1
2 1 2 3 4 3 1 1 4 5 5 4 5 6 7 8 9 9 9 8 8 7 7 7 8 7 6 4 3 2 1 2 2 2 2 2 1 1 1 1 1 1 1 1 1 2 1 1 1
2 2 3 4 3 2 1 2 3 4 5 5 6 7 7 7 7 8 9 8 8 8 9 9 9 8 6 4 3 2 2 2 1 2 3 2 2 2 1 1 1 1 2 2 2 2 1 1 1
1 1 3 4 4 2 2 2 1 2 3 4 5 6 7 8 10 11 10 9 9 8 9 8 8 8 6 4 3 3 3 2 2 2 3 3 3 2 2 2 2 2 2 2 3 2 1 1 1
2 1 3 4 5 2 1 3 1 1 3 5 5 5 6 7 9 10 11 9 8 9 9 8 8 8 7 6 4 4 3 2 2 2 2 4 4 3 3 2 2 3 3 4 4 4 3 3 2
3 3 3 3 2 3 0 4 3 1 2 5 6 7 7 7 8 9 10 10 9 8 8 8 8 8 7 6 5 4 3 3 4 4 3 4 4 3 3 3 2 3 3 4 5 4 3 4 3
3 4 3 3 2 2 1 3 5 1 2 4 5 6 7 7 7 8 9 9 8 8 7 7 7 7 7 6 5 4 4 4 4 4 3 3 3 3 3 3 3 3 3 4 4 4 4 4 4
1 3 3 3 3 3 3 4 5 1 2 3 3 5 6 7 8 8 8 8 8 8 7 7 8 8 8 7 6 5 5 6 6 5 4 4 3 3 3 3 3 3 3 4 4 5 6 5 5
4 4 4 5 2 5 1 3 5 1 1 1 2 4 6 6 7 8 9 10 10 10 9 8 9 9 9 8 7 6 5 5 5 5 4 4 3 3 4 4 3 3 4 4 4 4 5 5 5
0 3 3 3 4 5 3 4 4 1 2 2 2 3 5 6 6 7 8 8 9 10 10 10 10 9 9 8 8 7 6 4 4 5 5 5 4 4 4 4 4 4 4 4 4 4 5 4 5
2 1 2 3 1 4 5 4 4 1 3 4 5 5 6 6 7 7 8 8 8 9 10 9 10 9 9 9 8 7 7 6 6 6 5 4 4 4 4 4 3 4 4 4 4 4 4 4 4
2 4 3 2 2 5 6 5 4 3 3 5 6 6 7 8 8 8 8 8 7 7 8 8 8 9 9 9 8 8 8 8 7 6 6 5 5 5 4 3 3 3 3 3 4 4 4 4 4
2 2 2 2 2 3 5 6 2 3 2 3 4 6 6 7 8 8 8 7 7 7 8 8 9 9 10 9 9 9 8 8 7 6 6 6 5 4 4 4 4 3 3 3 4 4 4 5 4
2 3 4 2 4 3 3 6 1 0 1 2 4 6 6 7 7 7 7 8 8 9 9 9 9 10 10 9 9 9 8 8 7 7 7 6 6 5 4 4 4 4 4 4 5 5 5 5 5
Wind_Direction
358 35 61 55 56 52 230 256 232 278 236 351 65 105 122 126 137 154 336 56 86 128 144 138 132 128 123 116 110 104 99 95 92 91 90 91 92 97 100 99 95 97 99 98 98 98 97 97 100
357 46 53 59 89 100 270 256 214 231 206 90 55 73 75 52 13 68 15 344 82 123 129 130 130 128 123 117 112 108 103 99 95 91 88 88 88 89 92 94 94 94 94 93 96 98 99 101 104
57 53 78 76 115 175 203 224 203 304 0 64 59 47 76 26 355 352 314 2 85 104 117 130 132 128 124 120 118 114 108 102 99 95 92 91 90 88 86 86 89 92 93 93 96 96 99 101 106
67 47 57 77 171 220 227 281 275 346 24 39 84 50 31 24 341 323 17 76 93 76 91 126 132 131 127 124 120 118 114 107 103 99 97 95 94 94 87 82 84 85 91 97 98 98 101 100 103
57 75 66 53 253 274 288 309 323 58 20 16 72 92 6 1 11 34 47 76 95 71 65 108 118 126 128 128 124 121 117 111 108 104 101 97 96 94 89 86 84 83 88 95 100 101 103 104 102
56 69 98 202 249 294 333 326 47 49 23 20 62 94 336 10 20 18 35 62 76 74 59 71 99 111 120 123 126 124 118 113 108 102 98 95 95 94 88 88 86 86 89 95 99 102 103 103 100
104 102 156 182 221 315 334 349 67 41 28 345 13 101 321 2 3 14 35 54 57 55 54 54 64 76 93 110 120 120 117 113 107 99 94 92 88 88 84 85 85 89 93 96 98 100 101 98 97
114 106 120 178 187 265 332 23 46 48 354 358 61 92 307 321 359 34 44 45 49 47 45 45 49 58 62 73 101 106 113 109 103 95 90 91 89 86 81 79 82 92 92 96 97 100 101 96 93
79 85 180 196 186 235 0 36 2 18 65 36 42 42 331 10 45 50 37 28 25 29 30 34 36 41 48 58 69 82 87 92 94 91 90 88 83 82 81 81 78 78 86 92 97 99 98 95 90
72 145 204 200 175 156 26 45 3 40 25 8 3 6 18 45 61 60 43 28 11 357 358 20 29 32 39 49 50 61 68 71 77 80 82 80 82 79 81 85 81 79 81 85 93 96 95 87 85
85 155 178 356 36 108 64 35 18 72 16 329 327 341 12 35 43 40 20 360 333 338 346 358 18 30 44 39 47 46 53 53 64 75 78 80 81 75 70 74 69 66 74 76 79 80 85 90 89
85 33 30 344 3 34 47 62 39 54 336 347 9 30 41 38 27 10 354 344 344 347 337 344 3 24 38 44 46 49 47 47 44 57 77 85 75 67 64 68 59 57 61 75 80 83 85 90 92
72 24 8 13 28 43 62 64 84 29 353 27 44 45 41 30 10 1 358 354 353 344 336 333 351 1 23 42 36 42 35 38 42 43 69 93 87 77 71 65 65 62 70 88 91 90 89 94 92
79 54 17 5 11 11 63 13 55 351 5 43 46 42 34 28 16 10 6 358 351 340 334 334 336 342 8 29 25 27 24 27 42 33 40 84 102 102 93 69 68 66 91 106 108 114 108 108 106
61 46 17 8 7 8 57 23 14 342 26 41 38 34 28 21 17 10 359 353 346 340 340 340 335 348 349 357 3 19 12 21 26 13 14 58 95 121 107 110 88 68 120 112 100 96 95 100 107
43 42 7 344 11 351 71 279 3 5 42 34 26 23 17 13 11 2 359 354 351 352 351 347 347 346 339 335 348 358 1 14 13 359 349 7 72 124 116 140 196 151 131 118 121 127 109 94 107
35 31 306 323 5 13 72 240 345 9 49 38 18 14 12 7 7 4 1 356 354 356 356 354 354 347 338 336 344 351 357 7 2 358 344 330 309 203 168 209 219 159 128 130 153 132 138 136 117
271 269 275 291 335 10 32 265 350 15 53 37 16 12 12 8 356 356 358 358 359 1 4 2 1 356 348 349 348 344 348 343 354 351 332 319 296 261 221 225 211 166 158 171 158 153 135 160 161
181 204 269 279 323 355 224 261 334 12 39 28 18 13 8 357 351 359 1 1 5 9 9 5 2 357 360 354 342 314 288 275 292 336 332 315 299 268 252 251 217 198 193 198 181 157 149 171 154
57 280 286 300 341 326 248 258 328 34 37 36 27 13 1 356 358 360 2 5 6 5 3 -0 358 354 354 347 324 308 294 267 266 318 325 312 300 279 257 225 221 213 203 201 195 170 166 203 178
332 229 263 283 333 356 324 290 229 20 50 39 31 16 6 3 357 353 356 357 0 4 358 352 348 348 348 350 347 346 347 333 319 308 298 309 296 287 282 253 228 214 200 206 207 197 189 198 236
283 284 286 284 317 284 231 281 251 239 4 18 12 6 360 356 355 354 355 355 356 352 349 349 346 348 350 355 359 356 340 318 304 297 284 295 295 291 286 275 244 221 214 209 212 209 202 186 205
251 312 294 263 207 282 270 235 280 48 328 335 346 351 350 351 351 351 351 348 348 348 349 347 346 350 351 351 350 348 335 317 316 315 293 282 287 287 282 274 255 238 228 216 214 213 208 200 202
329 10 25 49 89 271 234 198 277 241 278 306 326 340 344 347 348 347 349 351 351 352 355 353 352 349 349 347 342 340 330 325 320 316 304 290 277 275 278 274 257 246 237 220 217 217 216 214 209
43 57 10 351 350 260 254 210 253 260 329 301 310 327 337 345 348 350 351 352 352 353 351 351 351 346 345 342 337 327 316 312 306 299 289 292 286 278 259 275 260 251 245 234 219 216 223 217 209
351 132 158 246 263 290 303 242 248 90 23 16 360 343 349 349 347 347 345 346 346 347 348 350 346 341 340 338 332 326 317 310 307 304 294 280 276 271 266 263 263 258 250 237 220 222 227 221 215
103 143 162 152 278 279 273 285 286 94 15 7 3 359 350 343 342 340 339 344 345 345 345 344 339 336 337 336 331 328 327 320 310 304 296 288 287 294 279 265 258 256 247 235 220 226 226 222 220
109 141 95 128 264 278 288 273 268 277 314 337 345 342 337 339 341 339 339 340 339 337 337 340 338 336 332 332 332 331 327 323 315 312 309 304 300 302 289 271 261 254 249 243 226 226 220 216 224
72 96 112 150 190 217 282 278 247 231 255 294 313 324 328 334 337 336 336 337 336 338 339 340 340 340 339 337 332 329 325 323 322 318 312 309 309 301 287 265 256 247 243 246 237 228 218 213 218
164 173 149 180 252 214 234 272 339 148 304 308 314 325 331 332 334 336 337 341 345 344 342 343 341 338 335 334 333 328 325 326 324 319 317 314 309 306 294 279 260 256 246 238 238 233 223 215 217
Height
1504 1505 1507 1509 1514 1527 1527 1522 1519 1518 1517 1516 1516 1516 1518 1521 1524 1528 1524 1522 1523 1524 1526 1527 1529 1530 1532 1533 1534 1535 1536 1536 1537 1538 1539 1539 1540 1541 1541 1542 1543 1544 1544 1545 1545 1546 1546 1547 1547
1505 1507 1509 1510 1522 1533 1528 1520 1518 1517 1516 1516 1516 1517 1518 1520 1521 1522 1522 1522 1523 1525 1526 1527 1529 1530 1532 1533 1534 1535 1536 1536 1537 1538 1539 1539 1540 1541 1542 1542 1543 1544 1544 1545 1545 1546 1547 1547 1548
1506 1508 1510 1514 1525 1529 1522 1517 1517 1516 1516 1516 1517 1518 1520 1521 1522 1523 1523 1523 1524 1525 1527 1528 1529 1530 1532 1533 1534 1535 1536 1536 1537 1538 1539 1540 1540 1541 1542 1542 1543 1544 1544 1545 1545 1546 1547 1548 1549
1507 1509 1511 1520 1523 1522 1519 1517 1516 1516 1516 1517 1518 1520 1521 1523 1523 1524 1523 1523 1524 1525 1527 1528 1529 1531 1532 1533 1533 1534 1535 1536 1537 1538 1538 1539 1540 1541 1542 1542 1543 1544 1544 1545 1546 1546 1547 1548 1549
1507 1509 1517 1525 1522 1520 1518 1517 1516 1516 1517 1518 1519 1520 1522 1523 1523 1523 1524 1524 1525 1526 1527 1528 1529 1530 1531 1532 1533 1534 1535 1536 1536 1537 1538 1539 1539 1540 1541 1542 1543 1543 1544 1545 1546 1546 1547 1548 1549
1508 1510 1525 1527 1522 1519 1518 1517 1517 1518 1518 1519 1520 1521 1523 1524 1523 1523 1524 1525 1525 1526 1527 1528 1529 1530 1531 1532 1533 1533 1534 1535 1535 1536 1537 1538 1539 1540 1540 1541 1542 1543 1544 1544 1545 1546 1547 1548 1549
1509 1516 1522 1523 1523 1520 1519 1518 1518 1519 1519 1520 1521 1522 1522 1523 1523 1523 1524 1525 1526 1526 1527 1528 1529 1529 1530 1531 1532 1533 1533 1534 1535 1536 1536 1537 1538 1539 1539 1540 1541 1542 1543 1544 1545 1546 1547 1548 1549
1509 1515 1521 1524 1523 1521 1520 1519 1520 1520 1521 1522 1522 1523 1523 1523 1523 1523 1524 1525 1525 1526 1526 1527 1528 1529 1529 1530 1531 1531 1532 1533 1534 1534 1535 1536 1537 1538 1539 1539 1540 1541 1542 1543 1544 1545 1546 1547 1548
1510 1519 1523 1522 1522 1521 1520 1520 1521 1521 1521 1522 1523 1524 1525 1524 1523 1523 1524 1524 1525 1526 1526 1526 1527 1528 1528 1529 1530 1531 1531 1531 1533 1533 1534 1535 1536 1537 1537 1538 1539 1540 1541 1542 1543 1544 1545 1546 1547
1511 1521 1520 1520 1519 1520 1520 1520 1521 1522 1522 1523 1523 1524 1524 1523 1523 1523 1523 1523 1523 1524 1525 1526 1526 1527 1527 1528 1529 1529 1530 1530 1531 1532 1533 1534 1534 1535 1536 1537 1538 1539 1540 1541 1542 1543 1544 1545 1546
1513 1519 1519 1519 1519 1519 1520 1521 1522 1522 1525 1525 1525 1523 1523 1522 1522 1522 1523 1523 1523 1524 1524 1525 1525 1526 1526 1527 1527 1528 1528 1529 1530 1531 1532 1532 1533 1534 1535 1535 1536 1537 1538 1539 1540 1541 1542 1544 1545
1516 1518 1519 1520 1520 1520 1521 1522 1524 1524 1527 1527 1525 1524 1523 1522 1522 1522 1522 1522 1522 1523 1523 1523 1524 1524 1525 1525 1526 1526 1527 1527 1528 1529 1530 1530 1531 1532 1533 1534 1535 1535 1536 1537 1538 1539 1541 1542 1543
1518 1519 1520 1520 1520 1521 1521 1523 1525 1526 1527 1526 1524 1523 1522 1522 1522 1522 1522 1522 1521 1521 1521 1522 1522 1523 1523 1524 1524 1525 1525 1526 1526 1527 1528 1528 1529 1530 1531 1532 1533 1534 1534 1535 1536 1538 1539 1540 1541
1519 1520 1520 1521 1520 1521 1522 1524 1525 1526 1526 1525 1523 1522 1522 1522 1521 1521 1520 1520 1519 1519 1519 1520 1520 1521 1521 1521 1522 1522 1523 1524 1524 1525 1525 1526 1527 1528 1529 1530 1531 1531 1532 1533 1535 1536 1537 1538 1539
1519 1521 1522 1522 1521 1522 1522 1526 1528 1528 1526 1524 1524 1523 1522 1522 1521 1520 1519 1519 1518 1518 1518 1518 1518 1518 1519 1519 1520 1520 1521 1521 1522 1523 1523 1524 1524 1525 1526 1527 1528 1529 1530 1531 1532 1533 1535 1536 1537
1521 1524 1527 1524 1523 1523 1526 1530 1530 1528 1526 1525 1524 1523 1522 1521 1521 1520 1519 1518 1517 1516 1516 1515 1516 1516 1516 1517 1517 1518 1518 1519 1520 1520 1521 1522 1522 1523 1524 1524 1525 1527 1528 1529 1530 1531 1532 1533 1534
1528 1531 1529 1527 1525 1524 1526 1530 1530 1528 1526 1525 1525 1524 1522 1521 1520 1518 1517 1516 1515 1515 1514 1513 1513 1513 1513 1514 1514 1515 1516 1516 1517 1518 1518 1519 1520 1520 1521 1522 1523 1524 1525 1526 1527 1528 1530 1530 1532
1532 1532 1531 1530 1527 1527 1529 1530 1529 1528 1527 1526 1525 1524 1522 1521 1519 1518 1516 1515 1514 1513 1512 1511 1511 1510 1511 1511 1511 1512 1513 1513 1514 1515 1515 1516 1517 1517 1518 1519 1520 1521 1522 1523 1524 1525 1527 1528 1529
1530 1531 1532 1530 1528 1529 1530 1530 1530 1529 1527 1526 1525 1524 1522 1521 1520 1518 1516 1514 1512 1511 1510 1509 1508 1508 1508 1508 1508 1508 1508 1509 1510 1511 1512 1513 1513 1514 1514 1515 1516 1517 1518 1520 1521 1522 1524 1525 1527
1529 1531 1533 1530 1529 1529 1530 1530 1529 1529 1528 1528 1527 1525 1523 1521 1518 1516 1514 1512 1510 1509 1508 1507 1506 1505 1505 1505 1505 1505 1505 1505 1506 1507 1508 1509 1509 1510 1511 1511 1512 1514 1515 1516 1518 1519 1520 1522 1524
1529 1532 1532 1532 1530 1530 1531 1530 1530 1529 1529 1528 1527 1526 1524 1521 1519 1516 1513 1511 1509 1507 1506 1505 1504 1503 1503 1502 1502 1501 1501 1502 1502 1502 1503 1504 1505 1506 1507 1507 1509 1510 1511 1512 1513 1515 1516 1518 1520
1531 1529 1529 1530 1534 1536 1533 1536 1529 1529 1529 1528 1527 1525 1523 1521 1519 1516 1513 1510 1508 1507 1506 1504 1503 1501 1500 1500 1499 1498 1497 1496 1497 1498 1498 1499 1501 1501 1502 1503 1504 1506 1507 1508 1509 1511 1513 1514 1516
1531 1529 1529 1529 1532 1536 1535 1537 1530 1529 1529 1528 1527 1526 1524 1521 1519 1516 1513 1511 1508 1506 1504 1503 1501 1499 1498 1497 1496 1495 1494 1494 1494 1494 1494 1495 1496 1497 1498 1499 1500 1501 1502 1504 1505 1507 1509 1510 1511
1530 1531 1531 1534 1536 1538 1534 1538 1531 1530 1528 1528 1527 1526 1524 1521 1519 1516 1513 1510 1508 1505 1503 1501 1499 1497 1496 1495 1493 1492 1491 1490 1490 1490 1489 1490 1491 1492 1493 1494 1495 1496 1497 1499 1500 1502 1504 1505 1507
1532 1537 1541 1540 1542 1537 1533 1535 1532 1529 1527 1527 1526 1525 1523 1521 1518 1515 1512 1509 1506 1503 1501 1499 1497 1495 1493 1492 1491 1490 1488 1487 1486 1486 1485 1485 1485 1486 1487 1489 1490 1491 1492 1493 1495 1497 1499 1500 1502
1535 1537 1544 1546 1545 1541 1535 1536 1531 1529 1528 1527 1526 1524 1522 1520 1518 1515 1512 1509 1506 1503 1500 1497 1495 1493 1491 1489 1488 1486 1485 1484 1482 1482 1482 1481 1481 1482 1483 1483 1485 1486 1487 1488 1490 1492 1493 1495 1497
1536 1539 1540 1547 1549 1551 1539 1536 1531 1528 1528 1527 1525 1523 1521 1519 1517 1514 1511 1508 1505 1502 1499 1497 1494 1492 1489 1487 1485 1483 1481 1480 1479 1478 1478 1477 1477 1477 1478 1479 1479 1481 1482 1483 1484 1486 1488 1489 1491
1535 1539 1545 1546 1547 1546 1538 1537 1532 1529 1528 1527 1525 1523 1521 1518 1516 1513 1510 1507 1505 1502 1499 1497 1494 1490 1487 1484 1482 1479 1478 1477 1476 1475 1474 1473 1473 1473 1473 1474 1474 1475 1477 1478 1479 1481 1482 1484 1486
1539 1541 1543 1547 1547 1548 1546 1536 1529 1528 1527 1527 1525 1523 1521 1518 1515 1512 1509 1506 1503 1500 1497 1494 1491 1487 1485 1482 1479 1477 1475 1474 1472 1471 1470 1469 1469 1469 1469 1470 1470 1470 1471 1473 1474 1475 1477 1478 1480
1537 1539 1543 1547 1547 1550 1551 1540 1528 1527 1526 1525 1524 1522 1520 1517 1514 1511 1508 1504 1501 1498 1495 1491 1489 1485 1482 1479 1477 1474 1472 1470 1468 1467 1466 1465 1465 1465 1465 1465 1465 1466 1467 1468 1469 1469 1471 1473 1474